Location: Spruce Knob
(38.6995°N, 79.5330°W)
Time: 01:49:51
(UTC-05:00)

BlueWalker 3 - Pass Details

Date: 14 December 2022
Orbit: 499 x 517 km, 53.2° (Epoch: 02 February)

Event Time Altitude Azimuth Distance (km) Brightness Sun altitude
Rises 18:38:51 0° 292° (WNW) 2,613 6.4 -19.1°
Reaches altitude 10° 18:42:02 10° 264° (W) 1,717 5.8 -19.7°
Maximum altitude 18:43:54 13° 235° (SW) 1,523 5.3 -20.1°
Drops below altitude 10° 18:45:45 10° 207° (SSW) 1,705 5.1 -20.4°
Sets 18:48:53 0° 179° (S) 2,578 5.7 -21.0°
